Location: Sternwarte ZA, Rosenfeld-Brittheim
(48.2889°N, 8.6789°E)
Time: 00:35:17
(UTC+02:00)

ISS - Pass Details

Date: 19 July 2018
Orbit: 402 x 408 km, 51.6° (Epoch: 19 July)

Event Time Altitude Azimuth Distance (km) Brightness Sun altitude
Rises 04:42:01 0° 291° (WNW) 2,333 -0.2 -8.8°
Reaches altitude 10° 04:44:08 10° 287° (WNW) 1,471 -1.3 -8.6°
Maximum altitude 04:47:20 51° 210° (SSW) 522 -3.7 -8.2°
Drops below altitude 10° 04:50:32 10° 133° (SE) 1,466 -1.0 -7.8°
Sets 04:52:39 0° 129° (SE) 2,324 0.1 -7.6°
